Home   Weather   Urbana   Past weeks

Flag for USA Past Weather in Urbana, Illinois, USA — Yesterday and Last 2 Weeks

Now
22 °F

Overcast.


Feels Like: 6 °F
Forecast: 18 / 24 °F
Wind: 22 mph from West

Location: University Of Illinois-Willard Airport

Current Time: Dec 8, 2016 at 12:34:46 pm

Latest Report: Dec 8, 2016 at 11:53 am


Visibility: 10 mi

Pressure: 30.42 "Hg

Humidity: 66%

Dew Point: 12 °F

Location of UrbanaLocation

Past Weather in Urbana — Graph

°F

Urbana Temperature Yesterday

Maximum temperature yesterday: 34 °F (at 11:53 am)
Minimum temperature yesterday: 24 °F (at 11:53 pm)
Average temperature yesterday: 30 °F

High & Low Weather Summary for the Past Weeks

 TemperatureHumidityPressure
High58 °F (Nov 29, 12:53 pm)100% (Nov 23, 1:53 pm)30.43 "Hg (Nov 23, 1:53 pm)
Low20 °F (Dec 8, 4:53 am)61% (Dec 7, 10:53 am)29.23 "Hg (Nov 28, 6:53 pm)
Average38 °F81%30.03 "Hg
* Reported Nov 23 10:53 am — Dec 8 10:53 am, Urbana, Weather by CustomWeather, © 2016

Note: Actual official high and low records may vary slightly from our data, if they occured in-between our weather recording intervals... More about our weather records

Advertising

Urbana Weather History for the Previous 24 Hours

Scroll right to see more
 ConditionsComfort  
Time TempWeatherWind HumidityBarometerVisibility
10:53 am
Thu, Dec 8
22 °FLight snow. Overcast.25 mph68%30.43 "Hg9 mi
9:53 am21 °FLight snow. Overcast.21 mph68%30.42 "Hg9 mi
8:53 am21 °FLight snow. Overcast.21 mph68%30.39 "Hg9 mi
7:53 am20 °FLight snow. Overcast.21 mph74%30.37 "Hg9 mi
6:53 am20 °FOvercast.22 mph74%30.35 "Hg10 mi
5:53 am20 °FClear.20 mph71%30.33 "Hg10 mi
4:53 am20 °FClear.16 mph71%30.31 "Hg10 mi
3:53 am21 °FClear.20 mph71%30.30 "Hg10 mi
2:53 am21 °FClear.16 mph74%30.30 "Hg10 mi
1:53 am22 °FClear.17 mph72%30.29 "Hg10 mi
12:53 am23 °FClear.18 mph68%30.29 "Hg10 mi
11:53 pm
Wed, Dec 7
24 °FPassing clouds.15 mph68%30.28 "Hg10 mi
10:53 pm26 °FPassing clouds.18 mph66%30.28 "Hg10 mi
9:53 pm26 °FClear.15 mph71%30.26 "Hg10 mi
8:53 pm28 °FPassing clouds.13 mph72%30.25 "Hg10 mi
7:53 pm29 °FPassing clouds.12 mph72%30.25 "Hg10 mi
6:53 pm30 °FPassing clouds.13 mph75%30.25 "Hg10 mi
5:53 pm30 °FMostly cloudy.12 mph72%30.22 "Hg10 mi
4:53 pm31 °FPassing clouds.13 mph67%30.21 "Hg10 mi
3:53 pm32 °FScattered clouds.13 mph66%30.20 "Hg10 mi
2:53 pm33 °FOvercast.12 mph63%30.20 "Hg10 mi
1:53 pm33 °FOvercast.15 mph61%30.18 "Hg10 mi
12:53 pm33 °FPartly sunny.12 mph63%30.18 "Hg10 mi
Weather by CustomWeather, © 2016

See weather overviewHow to use our weather pages